EDT,Max TemperatureF,Mean TemperatureF,Min TemperatureF,Max Dew PointF,MeanDew PointF,Min DewpointF,Max Humidity, Mean Humidity, Min Humidity, Max Sea Level PressureIn, Mean Sea Level PressureIn, Min Sea Level PressureIn, Max VisibilityMiles, Mean VisibilityMiles, Min VisibilityMiles, Max Wind SpeedMPH, Mean Wind SpeedMPH, Max Gust SpeedMPH,PrecipitationIn, CloudCover, Events, WindDirDegrees
2013-6-1,90,81,73,74,72,70,100,83,57,30.05,30.00,29.96,10,8,0,14,8,20,3.68,6,Fog-Rain-Thunderstorm,113
2013-6-2,88,80,73,75,73,71,94,84,63,30.01,29.97,29.91,10,10,10,13,6,,0.00,4,Rain-Thunderstorm,126
2013-6-3,86,80,75,75,73,71,94,80,63,30.01,29.95,29.91,10,9,1,14,6,17,0.21,5,Rain,200
2013-6-4,86,80,75,74,72,68,91,78,62,30.02,29.99,29.95,10,10,7,17,7,,0.03,6,Rain,164
2013-6-5,84,80,75,74,72,69,88,78,61,30.01,29.95,29.90,10,10,10,15,9,20,0.11,6,Rain,122
2013-6-6,82,78,75,75,73,69,100,89,72,29.87,29.74,29.67,10,6,0,32,18,46,3.62,7,Rain-Thunderstorm,159
2013-6-7,86,79,72,74,71,70,93,77,62,29.97,29.90,29.80,10,10,10,14,7,,0.00,3,,219
2013-6-8,88,80,73,74,73,71,94,82,62,30.10,30.04,29.98,10,8,2,17,8,26,0.19,5,Rain-Thunderstorm,165
2013-6-9,90,81,73,76,73,70,94,81,57,30.11,30.08,30.03,10,9,2,13,6,,0.62,4,Rain,110
2013-6-10,90,83,77,75,73,71,94,77,59,30.10,30.07,30.03,10,10,10,12,7,,0.00,2,,134
2013-6-11,88,82,77,77,74,70,90,77,63,30.11,30.07,30.03,10,10,10,9,4,,0.03,3,Rain-Thunderstorm,76
2013-6-12,90,82,75,75,72,70,90,71,55,30.10,30.06,30.03,10,10,10,13,4,,0.00,0,,354
2013-6-13,90,83,77,75,73,68,90,73,51,30.06,30.01,29.94,10,10,10,10,4,17,0.00,1,,288
2013-6-14,89,82,77,74,72,69,84,71,53,29.97,29.93,29.90,10,10,10,15,7,22,0.00,2,,258
2013-6-15,89,84,78,75,74,72,87,75,63,30.07,30.00,29.93,10,10,10,13,7,,0.00,3,,275
2013-6-16,91,84,79,76,75,73,88,77,57,30.09,30.06,30.02,10,10,10,14,9,,0.00,5,Thunderstorm,98
2013-6-17,91,84,78,75,73,71,90,71,52,30.07,30.04,30.00,10,10,10,10,4,,0.00,2,,246
2013-6-18,91,84,78,75,73,71,87,71,54,30.06,30.03,29.99,10,10,10,13,4,,0.03,1,,238
2013-6-19,91,84,78,75,74,72,90,71,53,30.05,30.02,29.99,10,10,10,12,4,,0.00,2,Thunderstorm-Tornado,280
2013-6-20,90,82,75,77,73,69,89,75,52,30.12,30.07,30.02,10,10,2,14,4,,0.64,2,Rain-Thunderstorm,352
2013-6-21,88,82,75,73,71,66,91,75,55,30.13,30.10,30.05,10,10,6,24,5,33,0.32,3,Rain-Thunderstorm,65
2013-6-22,90,82,73,75,71,68,94,75,51,30.13,30.09,30.05,10,10,3,18,5,28,0.11,2,Rain-Thunderstorm,109
2013-6-23,91,83,75,75,73,69,94,78,50,30.14,30.10,30.07,10,9,5,15,7,20,0.13,2,Rain-Thunderstorm,105
2013-6-24,91,82,75,75,73,69,94,79,50,30.19,30.13,30.07,10,7,1,12,7,25,1.50,4,Rain-Thunderstorm,81
2013-6-25,91,82,73,75,73,69,94,79,50,30.16,30.11,30.03,10,8,0,20,7,30,2.45,3,Fog-Rain-Thunderstorm,71
2013-6-26,90,81,73,75,74,72,100,84,57,30.09,30.05,30.02,10,8,0,30,5,38,2.91,3,Fog-Rain-Thunderstorm,139
2013-6-27,91,82,73,76,73,70,93,76,57,30.07,30.01,29.96,10,9,2,15,6,23,0.75,2,Rain-Thunderstorm,212
2013-6-28,89,83,77,76,74,73,90,75,61,29.99,29.93,29.87,10,10,10,15,5,22,0.00,2,,231
2013-6-29,84,80,77,75,73,72,88,79,70,29.90,29.87,29.82,10,9,1,17,7,29,0.22,3,Rain-Thunderstorm,222
2013-6-30,88,82,77,76,74,72,90,75,65,29.89,29.85,29.81,10,10,2,20,9,28,0.04,2,Thunderstorm,196